When you browse on this site, cookies collect data to enhance your experience and personalize the content and advertising you see.
Visit our Privacy Policy to learn more. By continuing to use the site, you agree to this use of cookies and data.
  • In Lithuania
  • List of Countries
  • For 7 days
  • Water Temperature
  • Weather Map
  • Weather Widgets
  • user-avatar
    Login

    Hourly Weather Mayrhofen

    Today, 25 May, Monday

    Time Temperature Precipitation Wind Pressure Humidity
    00:00 +2°C° 0 mm 1 mps 624 mmHg 90%
    01:00 +1°C° 0 mm 2 mps 624 mmHg 91%
    02:00 +2°C° 0.1 mm 2 mps 624 mmHg 91%
    03:00 +2°C° 0.1 mm 2 mps 624 mmHg 91%
    04:00 +3°C° 0.1 mm 1 mps 624 mmHg 91%
    05:00 +3°C° 0 mm 2 mps 624 mmHg 87%
    06:00 +4°C° 0 mm 2 mps 625 mmHg 83%
    07:00 +5°C° 0 mm 2 mps 625 mmHg 79%
    08:00 +6°C° 0.2 mm 2 mps 625 mmHg 75%
    09:00 +7°C° 0.2 mm 2 mps 625 mmHg 71%
    10:00 +8°C° 0.2 mm 2 mps 626 mmHg 66%
    11:00 +9°C° 0.2 mm 3 mps 626 mmHg 65%
    12:00 +9°C° 0.2 mm 3 mps 625 mmHg 64%
    13:00 +10°C° 0.2 mm 3 mps 625 mmHg 63%
    14:00 +10°C° 0.3 mm 3 mps 625 mmHg 63%
    15:00 +10°C° 0.3 mm 3 mps 625 mmHg 64%
    16:00 +9°C° 0.3 mm 3 mps 625 mmHg 65%
    17:00 +8°C° 0.3 mm 3 mps 624 mmHg 73%
    18:00 +7°C° 0.3 mm 3 mps 624 mmHg 80%
    19:00 +5°C° 0.3 mm 3 mps 624 mmHg 87%
    20:00 +4°C° 0.3 mm 3 mps 624 mmHg 90%
    21:00 +4°C° 0.3 mm 2 mps 624 mmHg 92%
    22:00 +4°C° 0.3 mm 2 mps 625 mmHg 95%
    23:00 +3°C° 0.2 mm 2 mps 625 mmHg 95%

    Tomorrow, 26 May, Tuesday

    Time Temperature Precipitation Wind Pressure Humidity
    00:00 +3°C° 0.2 mm 2 mps 625 mmHg 96%
    01:00 +3°C° 0.2 mm 2 mps 625 mmHg 96%
    02:00 +2°C° 0.1 mm 2 mps 624 mmHg 96%
    03:00 +2°C° 0.1 mm 2 mps 624 mmHg 96%
    04:00 +1°C° 0.1 mm 2 mps 624 mmHg 96%
    05:00 +2°C° 0 mm 2 mps 624 mmHg 92%
    06:00 +3°C° 0 mm 2 mps 624 mmHg 88%
    07:00 +4°C° 0 mm 2 mps 625 mmHg 85%
    08:00 +5°C° 0 mm 2 mps 625 mmHg 77%
    09:00 +7°C° 0 mm 2 mps 626 mmHg 69%
    10:00 +8°C° 0 mm 2 mps 626 mmHg 61%
    11:00 +9°C° 0 mm 3 mps 626 mmHg 57%
    12:00 +10°C° 0 mm 3 mps 626 mmHg 52%
    13:00 +10°C° 0 mm 3 mps 626 mmHg 47%
    14:00 +10°C° 0 mm 3 mps 626 mmHg 47%
    15:00 +10°C° 0 mm 4 mps 626 mmHg 47%
    16:00 +10°C° 0 mm 4 mps 626 mmHg 47%
    17:00 +9°C° 0.1 mm 3 mps 626 mmHg 56%
    18:00 +7°C° 0.1 mm 3 mps 625 mmHg 64%
    19:00 +5°C° 0.1 mm 3 mps 625 mmHg 73%
    20:00 +4°C° 0 mm 2 mps 625 mmHg 80%
    21:00 +3°C° 0 mm 2 mps 625 mmHg 87%
    22:00 +2°C° 0 mm 1 mps 625 mmHg 94%
    23:00 +2°C° 0 mm 1 mps 624 mmHg 93%

    Day after tomorrow, 27 May, Wednesday

    Time Temperature Precipitation Wind Pressure Humidity
    00:00 +1°C° 0 mm 1 mps 624 mmHg 93%
    01:00 +1°C° 0 mm 1 mps 624 mmHg 92%
    02:00 +1°C° 0 mm 1 mps 624 mmHg 89%
    03:00 0°C° 0 mm 1 mps 623 mmHg 87%
    04:00 0°C° 0 mm 1 mps 623 mmHg 84%
    05:00 +2°C° 0 mm 1 mps 624 mmHg 76%
    06:00 +4°C° 0 mm 1 mps 625 mmHg 68%
    07:00 +6°C° 0 mm 1 mps 625 mmHg 59%
    08:00 +8°C° 0 mm 1 mps 626 mmHg 52%
    09:00 +9°C° 0 mm 2 mps 626 mmHg 45%
    10:00 +12°C° 0 mm 2 mps 627 mmHg 38%
    11:00 +13°C° 0 mm 2 mps 627 mmHg 36%
    12:00 +14°C° 0 mm 2 mps 627 mmHg 34%
    13:00 +14°C° 0 mm 2 mps 627 mmHg 33%
    14:00 +14°C° 0 mm 2 mps 627 mmHg 34%
    15:00 +13°C° 0 mm 3 mps 627 mmHg 36%
    16:00 +13°C° 0 mm 3 mps 626 mmHg 38%
    17:00 +11°C° 0 mm 3 mps 626 mmHg 48%
    18:00 +10°C° 0 mm 2 mps 625 mmHg 59%
    19:00 +8°C° 0 mm 2 mps 625 mmHg 69%
    20:00 +7°C° 0 mm 2 mps 624 mmHg 77%
    21:00 +6°C° 0 mm 1 mps 624 mmHg 85%
    22:00 +4°C° 0 mm 1 mps 623 mmHg 93%
    23:00 +4°C° 0 mm 1 mps 623 mmHg 93%

    28 May, Thursday

    Time Temperature Precipitation Wind Pressure Humidity
    00:00 +3°C° 0 mm 1 mps 623 mmHg 94%
    01:00 +3°C° 0 mm 1 mps 623 mmHg 94%
    02:00 +3°C° 0 mm 1 mps 622 mmHg 93%
    03:00 +3°C° 0 mm 1 mps 622 mmHg 92%
    04:00 +2°C° 0 mm 1 mps 622 mmHg 91%
    05:00 +4°C° 0 mm 1 mps 622 mmHg 83%
    06:00 +6°C° 0 mm 1 mps 623 mmHg 74%
    07:00 +7°C° 0 mm 1 mps 623 mmHg 66%
    08:00 +8°C° 0 mm 2 mps 624 mmHg 61%
    09:00 +9°C° 0 mm 2 mps 624 mmHg 55%
    10:00 +12°C° 0 mm 2 mps 624 mmHg 50%
    11:00 +12°C° 0.2 mm 2 mps 624 mmHg 52%
    12:00 +12°C° 0.2 mm 2 mps 624 mmHg 54%
    13:00 +12°C° 0.2 mm 3 mps 623 mmHg 55%
    14:00 +11°C° 0.3 mm 3 mps 623 mmHg 59%
    15:00 +11°C° 0.3 mm 3 mps 623 mmHg 62%
    16:00 +11°C° 0.3 mm 3 mps 622 mmHg 65%
    17:00 +10°C° 0.2 mm 3 mps 622 mmHg 72%
    18:00 +8°C° 0.2 mm 2 mps 621 mmHg 79%
    19:00 +7°C° 0.2 mm 2 mps 621 mmHg 86%
    20:00 +6°C° 0.1 mm 2 mps 621 mmHg 89%
    21:00 +6°C° 0.1 mm 1 mps 621 mmHg 92%
    22:00 +5°C° 0.1 mm 1 mps 620 mmHg 96%
    23:00 +5°C° 0 mm 1 mps 620 mmHg 96%

    29 May, Friday

    Time Temperature Precipitation Wind Pressure Humidity
    00:00 +5°C° 0 mm 1 mps 620 mmHg 96%
    01:00 +4°C° 0 mm 1 mps 620 mmHg 96%
    02:00 +4°C° 0 mm 1 mps 619 mmHg 96%
    03:00 +3°C° 0 mm 1 mps 619 mmHg 96%
    04:00 +2°C° 0 mm 1 mps 618 mmHg 96%
    05:00 +4°C° 0 mm 1 mps 619 mmHg 92%
    06:00 +5°C° 0 mm 1 mps 619 mmHg 88%
    07:00 +6°C° 0 mm 1 mps 619 mmHg 84%
    08:00 +8°C° 0 mm 1 mps 619 mmHg 77%
    09:00 +9°C° 0 mm 1 mps 620 mmHg 69%
    10:00 +10°C° 0 mm 1 mps 620 mmHg 62%
    11:00 +10°C° 0 mm 2 mps 620 mmHg 61%
    12:00 +10°C° 0 mm 2 mps 619 mmHg 59%
    13:00 +10°C° 0 mm 2 mps 619 mmHg 58%
    14:00 +10°C° 0.1 mm 2 mps 619 mmHg 59%
    15:00 +10°C° 0.1 mm 3 mps 618 mmHg 60%
    16:00 +10°C° 0.1 mm 3 mps 618 mmHg 62%
    17:00 +9°C° 0.1 mm 2 mps 618 mmHg 68%
    18:00 +7°C° 0.1 mm 2 mps 617 mmHg 74%
    19:00 +6°C° 0.1 mm 2 mps 617 mmHg 79%
    20:00 +5°C° 0.1 mm 2 mps 617 mmHg 84%
    21:00 +4°C° 0.1 mm 2 mps 617 mmHg 89%
    22:00 +3°C° 0.1 mm 2 mps 617 mmHg 94%
    23:00 +3°C° 0.5 mm 2 mps 617 mmHg 95%

    30 May, Saturday

    Time Temperature Precipitation Wind Pressure Humidity
    00:00 +3°C° 0.5 mm 2 mps 616 mmHg 96%
    01:00 +2°C° 0.5 mm 2 mps 616 mmHg 97%
    02:00 +2°C° 1.5 mm 2 mps 616 mmHg 97%
    03:00 +1°C° 1.5 mm 2 mps 616 mmHg 97%
    04:00 +1°C° 1.5 mm 2 mps 616 mmHg 98%
    05:00 +1°C° 0.2 mm 2 mps 616 mmHg 96%
    06:00 +1°C° 0.2 mm 2 mps 616 mmHg 95%
    07:00 +1°C° 0.2 mm 2 mps 616 mmHg 94%
    08:00 +2°C° 0 mm 2 mps 617 mmHg 88%
    09:00 +3°C° 0 mm 2 mps 617 mmHg 82%
    10:00 +4°C° 0 mm 2 mps 617 mmHg 75%
    11:00 +5°C° 0 mm 2 mps 618 mmHg 69%
    12:00 +7°C° 0 mm 3 mps 618 mmHg 62%
    13:00 +8°C° 0 mm 3 mps 618 mmHg 56%
    14:00 +8°C° 0 mm 3 mps 618 mmHg 56%
    15:00 +8°C° 0 mm 3 mps 618 mmHg 55%
    16:00 +8°C° 0 mm 3 mps 618 mmHg 55%
    17:00 +7°C° 0 mm 2 mps 618 mmHg 62%
    18:00 +6°C° 0 mm 2 mps 618 mmHg 69%
    19:00 +5°C° 0 mm 2 mps 617 mmHg 76%
    20:00 +3°C° 0 mm 2 mps 617 mmHg 82%
    21:00 +3°C° 0 mm 1 mps 617 mmHg 88%
    22:00 +1°C° 0 mm 1 mps 616 mmHg 94%
    23:00 0°C° 0 mm 1 mps 616 mmHg 94%
    Show more